Regional Weather Roundup
Issued by NWS

Home | Current Version | Previous Version | Text Only | Print | Product List | Glossary Off
Versions: 1 2 3 4 5 6 7 8 9 10 11 12 13 14 15 16 17 18 19 20 21 22 23 24 25 26 27 28 29 30 31 32 33 34 35 36 37 38 39 40 41 42 43 44 45 46 47 48 49 50

936
ASUS43 KDTX 190001
RWRMI
MICHIGAN HOURLY REGIONAL WEATHER ROUNDUP
NATIONAL WEATHER SERVICE DETROIT/PONTIAC MI
700 PM EST WED JAN 18 2017

NOTE: "FAIR" INDICATES FEW OR NO CLOUDS BELOW 12,000 FEET WITH NO
SIGNIFICANT WEATHER AND/OR OBSTRUCTION TO VISIBILITY.

MIZ047>049-052>055-059>063-066>070-074>076-081>083-190100-
SOUTHEAST LOWER MICHIGAN

CITY           SKY/WX    TMP DP  RH WIND       PRES   REMARKS
ADRIAN         CLOUDY    34  34 100 W9        30.07F WCI  27
6HR MIN TEMP:  34; 6HR MAX TEMP:  40;

ALMA           CLOUDY    35  34  94 SW10G20   30.01F FOG     WCI  28
ANN ARBOR      CLOUDY    36  35  96 SW13      30.05S WCI  27
BAD AXE        CLOUDY    35  35 100 SW8       29.98S WCI  28
6HR MIN TEMP:  34; 6HR MAX TEMP:  36;

CARO           CLOUDY    37  35  96 SW12G20   29.99S WCI  29
DETROIT CITY   CLOUDY    39  36  87 W10       30.04F WCI  32
DETROIT        CLOUDY    38  35  89 SW14      30.05F WCI  30
6HR MIN TEMP:  38; 6HR MAX TEMP:  43;

FLINT          CLOUDY    37  35  92 SW9       30.02S WCI  30
6HR MIN TEMP:  37; 6HR MAX TEMP:  38;

GROSSE ILE     CLOUDY    37  34  90 SW8       30.04F WCI  31
6HR MIN TEMP:  37; 6HR MAX TEMP:  41;

HILLSDALE      CLOUDY    32  32 100 SW13      30.05F FOG     WCI  22
HOWELL         CLOUDY    36  33  90 SW10G17   30.03R WCI  28

CITY           SKY/WX    TMP DP  RH WIND       PRES   REMARKS
JACKSON        CLOUDY    34  33  96 SW15      30.06R FOG     WCI  24
6HR MIN TEMP:  34; 6HR MAX TEMP:  38;

LAMBERTVILLE   CLOUDY    38  35  89 SW10      30.08F WCI  31
6HR MIN TEMP:  38; 6HR MAX TEMP:  41;

LANSING        CLOUDY    36  33  89 SW15      30.04R WCI  27
6HR MIN TEMP:  36; 6HR MAX TEMP:  39;

LAPEER         CLOUDY    37  36  94 SW8       30.02R WCI  31
6HR MIN TEMP:  37; 6HR MAX TEMP:  38;

MASON          CLOUDY    34  34  98 SW8       30.05R FOG     WCI  28
MONROE         CLOUDY    36  35  96 SW13      30.06F WCI  27
6HR MIN TEMP:  36; 6HR MAX TEMP:  41;

PONTIAC        CLOUDY    37  34  89 SW9       30.00F WCI  30
6HR MIN TEMP:  37; 6HR MAX TEMP:  38;

PORT HOPE        N/A     36  34  92 SW9G22    29.95R WCI  29
6HR MIN TEMP:  36; 6HR MAX TEMP:  37;

PORT HURON     CLOUDY    37  36  93 SW5       30.03S WCI  34
TRI CITIES     CLOUDY    36  35  96 SW14      30.00S WCI  27
6HR MIN TEMP:  36; 6HR MAX TEMP:  38;

MIDLAND        CLOUDY    37  33  89 SW13G18   29.99R WCI  28
6HR MIN TEMP:  37; 6HR MAX TEMP:  39;

TROY           CLOUDY    39  35  84 SW6       30.04F WCI  35
SAGINAW HB     CLOUDY    37  32  81 SW13G20   30.00S WCI  29
$$
MIZ043>046-050>051-056>058-064>065-071>073-077>080-190100-
SOUTHWEST LOWER MICHIGAN

CITY           SKY/WX    TMP DP  RH WIND       PRES   REMARKS
BATTLE CREEK   CLOUDY    34  33  96 SW16      30.06S WCI  24
6HR MIN TEMP:  34; 6HR MAX TEMP:  38;

BENTON HARBOR  CLOUDY    35  32  88 S9        30.08F WCI  28
6HR MIN TEMP:  35; 6HR MAX TEMP:  37;

BIG RAPIDS     CLOUDY    34  32  93 SW10G20   29.98S FOG     WCI  26
6HR MIN TEMP:  34; 6HR MAX TEMP:  37;

COLDWATER      CLOUDY    33  33 100 SW9       30.08S WCI  26
6HR MIN TEMP:  33; 6HR MAX TEMP:  37;

FREMONT        CLOUDY    34  34  99 SW13G20   30.01F WCI  25
HOLLAND        CLOUDY    35  32  88 SW14      30.05S WCI  26
6HR MIN TEMP:  35; 6HR MAX TEMP:  37;

GRAND RAPIDS   CLOUDY    34  32  92 SW15      30.05R FOG     WCI  24
6HR MIN TEMP:  34; 6HR MAX TEMP:  38;

IONIA          CLOUDY    34  33  97 SW17      30.04R FOG     WCI  23
6HR MIN TEMP:  34; 6HR MAX TEMP:  37;

KALAMAZOO      CLOUDY    34  32  92 SW10      30.06F FOG     WCI  26
6HR MIN TEMP:  34; 6HR MAX TEMP:  38;

LUDINGTON      CLOUDY    34  33  96 SW14G22   29.97F WCI  25
6HR MIN TEMP:  34; 6HR MAX TEMP:  35;

MARSHALL       CLOUDY    34  34  98 SW15G21   30.06S WCI  25
6HR MIN TEMP:  34; 6HR MAX TEMP:  38;

MOUNT PLEASANT CLOUDY    35  34  95 W12G22    29.99R WCI  27
6HR MIN TEMP:  35; 6HR MAX TEMP:  38;

MUSKEGON       CLOUDY    36  33  89 SW15      30.03F WCI  27
6HR MIN TEMP:  36; 6HR MAX TEMP:  38;

SOUTH HAVEN    CLOUDY    34  32  94 SW8       30.07S WCI  27
$$
MIZ016>042-190100-
NORTHERN LOWER MICHIGAN

CITY           SKY/WX    TMP DP  RH WIND       PRES   REMARKS
ALPENA         CLEAR     38  32  79 SW8       29.89R WCI  32
6HR MIN TEMP:  36; 6HR MAX TEMP:  42;

BEAVER ISLAND  CLOUDY    36  33  92 SW14G24   29.88S WCI  27
6HR MIN TEMP:  34; 6HR MAX TEMP:  36;

BELLAIRE       CLOUDY    36  33  88 SW7       29.93R WCI  30
6HR MIN TEMP:  36; 6HR MAX TEMP:  40;

CADILLAC       CLOUDY    33  32  98 SW12      29.93S FOG     WCI  24
CHARLEVOIX     CLEAR     35  34  95 SW7       29.94S WCI  29
6HR MIN TEMP:  35; 6HR MAX TEMP:  38;

FRANKFORT      CLOUDY    35  33  94 S9G20     29.94S WCI  28
GAYLORD        CLEAR     37  30  75 SW15      29.88R WCI  28
6HR MIN TEMP:  34; 6HR MAX TEMP:  42;

GRAYLING       MOCLDY    35  33  90 SW7       29.91S WCI  29
6HR MIN TEMP:  35; 6HR MAX TEMP:  43;

HARBOR SPRINGS CLOUDY    35  33  94 SW9       29.89S WCI  27
HOUGHTON LAKE  CLOUDY    34  31  88 SW13G22   29.93R WCI  25
6HR MIN TEMP:  34; 6HR MAX TEMP:  38;

MANISTEE       CLOUDY    34  32  92 S10G17    29.96F WCI  26
OSCODA         CLOUDY    37  34  89 SW14G20   29.93R WCI  29
6HR MIN TEMP:  37; 6HR MAX TEMP:  39;

PELLSTON       CLOUDY    36  31  82 SW12      29.88F WCI  28
6HR MIN TEMP:  36; 6HR MAX TEMP:  39;

ROGERS CITY    CLEAR     34  31  92 W3        29.89S
TRAVERSE CITY  CLOUDY    36  31  82 VRB6      29.91S WCI  31
6HR MIN TEMP:  36; 6HR MAX TEMP:  39;

$$
MIZ007>008-015-190100-
EASTERN UPPER MICHIGAN

CITY           SKY/WX    TMP DP  RH WIND       PRES   REMARKS
MACKINAC ISLAN CLOUDY    34  34 100 W16G24    29.88R WCI  23
6HR MIN TEMP:  33; 6HR MAX TEMP:  35;

NEWBERRY       CLOUDY    32  32  99 SW9       29.86R WCI  24
6HR MIN TEMP:  32; 6HR MAX TEMP:  33;

S. S. MARIE    CLOUDY    35  31  85 W7G17     29.87R WCI  29
6HR MIN TEMP:  35; 6HR MAX TEMP:  37;

MUNISING         N/A     34  32  92 S12       29.83R WCI  25
6HR MIN TEMP:  34; 6HR MAX TEMP:  43;

$$
MIZ004>006-011>014-085-190100-
CENTRAL UPPER MICHIGAN

CITY           SKY/WX    TMP DP  RH WIND       PRES   REMARKS
MANISTIQUE     CLEAR     32  32  99 SW8       29.86S WCI  25
6HR MIN TEMP:  32; 6HR MAX TEMP:  33;

ESCANABA       CLOUDY    32  31  96 S9        29.86S WCI  24
6HR MIN TEMP:  32; 6HR MAX TEMP:  39;

SAWYER-GWINN   CLEAR     37  30  75 S7        29.80S WCI  32
$$
MIZ001>003-009>011-084-190100-
WESTERN UPPER MICHIGAN

CITY           SKY/WX    TMP DP  RH WIND       PRES   REMARKS
IRON MOUNTAIN  CLOUDY    39  28  64 SW6       29.82R WCI  35
6HR MIN TEMP:  39; 6HR MAX TEMP:  46;

HOUGHTON       CLEAR     33  26  75 CALM      29.79R
6HR MIN TEMP:  32; 6HR MAX TEMP:  40;

COPPER HARBOR    N/A     31  28  89 W3        29.81R
6HR MIN TEMP:  30; 6HR MAX TEMP:  41;

IRONWOOD       CLOUDY    40  27  59 SW8       29.81R WCI  34
6HR MIN TEMP:  40; 6HR MAX TEMP:  46;

$$

ABBREVIATIONS USED IN REMARKS
   TC - TEMPERATURE IN CELSIUS
  WCI - WIND CHILL INDEX
   HX - HEAT INDEX
  VSB - VISIBILITY





USA.gov is the U.S. government's official web portal to all federal, state and local government web resources and services.